EN

Hourly Weather Topolivka

Today, 19 April, Monday

Time Temperature Precipitation Wind Pressure Humidity
00:00 +9°C° 0 mm 1 mps 730 mmHg 91%
01:00 +8°C° 0 mm 0 mps 730 mmHg 91%
02:00 +8°C° 0 mm 0 mps 730 mmHg 91%
03:00 +8°C° 0 mm 0 mps 729 mmHg 92%
04:00 +8°C° 0 mm 0 mps 729 mmHg 93%
05:00 +8°C° 0 mm 0 mps 729 mmHg 94%
06:00 +9°C° 0 mm 0 mps 729 mmHg 91%
07:00 +9°C° 0 mm 0 mps 729 mmHg 88%
08:00 +10°C° 0 mm 0 mps 729 mmHg 86%
09:00 +11°C° 0 mm 1 mps 729 mmHg 84%
10:00 +12°C° 0 mm 1 mps 729 mmHg 82%
11:00 +13°C° 0 mm 1 mps 729 mmHg 81%
12:00 +12°C° 0 mm 1 mps 729 mmHg 82%
13:00 +12°C° 0 mm 1 mps 729 mmHg 84%
14:00 +12°C° 0 mm 1 mps 729 mmHg 85%
15:00 +12°C° 0 mm 1 mps 729 mmHg 86%
16:00 +12°C° 0 mm 2 mps 728 mmHg 86%
17:00 +10°C° 0 mm 2 mps 728 mmHg 87%
18:00 +10°C° 0 mm 2 mps 728 mmHg 89%
19:00 +11°C° 0 mm 1 mps 728 mmHg 91%
20:00 +10°C° 0 mm 1 mps 728 mmHg 92%
21:00 +10°C° 0.3 mm 1 mps 727 mmHg 93%
22:00 +10°C° 0.3 mm 1 mps 726 mmHg 95%
23:00 +9°C° 0.3 mm 2 mps 726 mmHg 96%

Tomorrow, 20 April, Tuesday

Time Temperature Precipitation Wind Pressure Humidity
00:00 +9°C° 1.2 mm 2 mps 725 mmHg 96%
01:00 +10°C° 1.2 mm 1 mps 724 mmHg 97%
02:00 +10°C° 1.2 mm 1 mps 723 mmHg 98%
03:00 +10°C° 0.9 mm 1 mps 723 mmHg 97%
04:00 +9°C° 0.9 mm 2 mps 723 mmHg 97%
05:00 +9°C° 0.9 mm 2 mps 722 mmHg 96%
06:00 +9°C° 0 mm 3 mps 722 mmHg 93%
07:00 +10°C° 0 mm 4 mps 722 mmHg 89%
08:00 +10°C° 0 mm 5 mps 721 mmHg 85%
09:00 +10°C° 0 mm 6 mps 721 mmHg 79%
10:00 +11°C° 0 mm 8 mps 721 mmHg 73%
11:00 +11°C° 0 mm 9 mps 721 mmHg 66%
12:00 +11°C° 0 mm 10 mps 721 mmHg 68%
13:00 +9°C° 0 mm 11 mps 721 mmHg 70%
14:00 +8°C° 0 mm 13 mps 721 mmHg 72%
15:00 +7°C° 0 mm 11 mps 722 mmHg 76%
16:00 +6°C° 0 mm 10 mps 723 mmHg 80%
17:00 +5°C° 0 mm 9 mps 724 mmHg 83%
18:00 +5°C° 0 mm 9 mps 724 mmHg 84%
19:00 +5°C° 0 mm 8 mps 725 mmHg 84%
20:00 +6°C° 0 mm 8 mps 726 mmHg 85%
21:00 +5°C° 0 mm 7 mps 727 mmHg 84%
22:00 +6°C° 0 mm 5 mps 727 mmHg 83%
23:00 +6°C° 0 mm 4 mps 728 mmHg 82%

Day after tomorrow, 21 April, Wednesday

Time Temperature Precipitation Wind Pressure Humidity
00:00 +6°C° 0 mm 4 mps 728 mmHg 83%
01:00 +6°C° 0 mm 4 mps 728 mmHg 83%
02:00 +5°C° 0 mm 3 mps 729 mmHg 84%
03:00 +5°C° 0 mm 3 mps 729 mmHg 83%
04:00 +5°C° 0 mm 3 mps 729 mmHg 82%
05:00 +5°C° 0 mm 3 mps 730 mmHg 82%
06:00 +8°C° 0 mm 3 mps 730 mmHg 74%
07:00 +9°C° 0 mm 3 mps 731 mmHg 67%
08:00 +11°C° 0 mm 3 mps 731 mmHg 60%
09:00 +12°C° 0 mm 3 mps 731 mmHg 57%
10:00 +12°C° 0 mm 3 mps 731 mmHg 54%
11:00 +13°C° 0 mm 3 mps 732 mmHg 51%
12:00 +13°C° 0 mm 3 mps 732 mmHg 52%
13:00 +13°C° 0 mm 3 mps 732 mmHg 52%
14:00 +13°C° 0 mm 4 mps 732 mmHg 53%
15:00 +13°C° 0.1 mm 3 mps 732 mmHg 57%
16:00 +12°C° 0.1 mm 3 mps 732 mmHg 61%
17:00 +12°C° 0.1 mm 3 mps 732 mmHg 65%
18:00 +11°C° 0.1 mm 3 mps 733 mmHg 72%
19:00 +9°C° 0.1 mm 2 mps 733 mmHg 79%
20:00 +8°C° 0.1 mm 2 mps 733 mmHg 85%
21:00 +8°C° 0 mm 2 mps 733 mmHg 85%
22:00 +7°C° 0 mm 2 mps 733 mmHg 84%
23:00 +7°C° 0 mm 2 mps 733 mmHg 84%

22 April, Thursday

Time Temperature Precipitation Wind Pressure Humidity
00:00 +6°C° 0 mm 2 mps 734 mmHg 83%
01:00 +6°C° 0 mm 2 mps 734 mmHg 81%
02:00 +6°C° 0 mm 2 mps 734 mmHg 80%
03:00 +6°C° 0 mm 2 mps 734 mmHg 80%
04:00 +6°C° 0 mm 2 mps 734 mmHg 80%
05:00 +6°C° 0 mm 2 mps 734 mmHg 79%
06:00 +8°C° 0 mm 2 mps 734 mmHg 71%
07:00 +10°C° 0 mm 2 mps 735 mmHg 62%
08:00 +13°C° 0 mm 2 mps 735 mmHg 53%
09:00 +14°C° 0 mm 2 mps 735 mmHg 51%
10:00 +13°C° 0 mm 3 mps 735 mmHg 49%
11:00 +14°C° 0 mm 3 mps 735 mmHg 47%
12:00 +14°C° 0 mm 3 mps 735 mmHg 47%
13:00 +14°C° 0 mm 3 mps 735 mmHg 48%
14:00 +14°C° 0 mm 3 mps 735 mmHg 48%
15:00 +15°C° 0 mm 2 mps 735 mmHg 52%
16:00 +14°C° 0 mm 2 mps 735 mmHg 55%
17:00 +14°C° 0 mm 2 mps 735 mmHg 59%
18:00 +12°C° 0 mm 2 mps 735 mmHg 64%
19:00 +10°C° 0 mm 2 mps 736 mmHg 69%
20:00 +8°C° 0 mm 2 mps 736 mmHg 75%
21:00 +8°C° 0 mm 2 mps 736 mmHg 75%
22:00 +9°C° 0 mm 1 mps 735 mmHg 75%
23:00 +8°C° 0 mm 1 mps 735 mmHg 75%

23 April, Friday

Time Temperature Precipitation Wind Pressure Humidity
00:00 +8°C° 0 mm 1 mps 735 mmHg 74%
01:00 +8°C° 0 mm 1 mps 735 mmHg 74%
02:00 +7°C° 0 mm 2 mps 735 mmHg 73%
03:00 +7°C° 0 mm 1 mps 735 mmHg 74%
04:00 +7°C° 0 mm 1 mps 735 mmHg 75%
05:00 +7°C° 0 mm 1 mps 734 mmHg 75%
06:00 +9°C° 0 mm 1 mps 735 mmHg 69%
07:00 +10°C° 0 mm 2 mps 735 mmHg 63%
08:00 +13°C° 0 mm 2 mps 735 mmHg 57%
09:00 +14°C° 0 mm 2 mps 735 mmHg 53%
10:00 +15°C° 0 mm 2 mps 735 mmHg 49%
11:00 +16°C° 0 mm 3 mps 735 mmHg 45%
12:00 +17°C° 0 mm 3 mps 734 mmHg 44%
13:00 +17°C° 0 mm 3 mps 734 mmHg 43%
14:00 +17°C° 0 mm 3 mps 734 mmHg 42%
15:00 +16°C° 0 mm 3 mps 733 mmHg 46%
16:00 +14°C° 0 mm 3 mps 733 mmHg 51%
17:00 +13°C° 0 mm 3 mps 733 mmHg 55%
18:00 +12°C° 0 mm 3 mps 733 mmHg 59%
19:00 +10°C° 0 mm 2 mps 733 mmHg 64%
20:00 +9°C° 0 mm 2 mps 732 mmHg 69%
21:00 +9°C° 0 mm 2 mps 732 mmHg 68%
22:00 +9°C° 0 mm 2 mps 732 mmHg 67%
23:00 +8°C° 0 mm 2 mps 732 mmHg 65%

24 April, Saturday

Time Temperature Precipitation Wind Pressure Humidity
00:00 +8°C° 0 mm 2 mps 731 mmHg 66%
01:00 +8°C° 0 mm 2 mps 731 mmHg 66%
02:00 +9°C° 0 mm 1 mps 731 mmHg 67%
03:00 +9°C° 0 mm 1 mps 731 mmHg 69%
04:00 +9°C° 0 mm 1 mps 731 mmHg 70%
05:00 +9°C° 0 mm 1 mps 731 mmHg 72%
06:00 +9°C° 0 mm 2 mps 731 mmHg 71%
07:00 +9°C° 0 mm 2 mps 731 mmHg 71%
08:00 +10°C° 0 mm 2 mps 732 mmHg 70%
09:00 +9°C° 0.1 mm 3 mps 732 mmHg 74%
10:00 +8°C° 0.1 mm 4 mps 732 mmHg 79%
11:00 +7°C° 0.1 mm 5 mps 733 mmHg 83%
12:00 +8°C° 0.1 mm 5 mps 733 mmHg 72%
13:00 +10°C° 0.1 mm 5 mps 733 mmHg 61%
14:00 +12°C° 0.1 mm 5 mps 733 mmHg 51%
15:00 +12°C° 0 mm 5 mps 733 mmHg 51%
16:00 +10°C° 0 mm 5 mps 734 mmHg 52%
17:00 +11°C° 0 mm 4 mps 734 mmHg 52%
18:00 +9°C° 0 mm 3 mps 734 mmHg 58%
19:00 +8°C° 0 mm 2 mps 735 mmHg 63%
20:00 +7°C° 0 mm 1 mps 735 mmHg 69%
21:00 +7°C° 0 mm 1 mps 735 mmHg 70%
22:00 +7°C° 0 mm 1 mps 735 mmHg 72%
23:00 +6°C° 0 mm 1 mps 735 mmHg 73%
Show more

We Need Your Consent

Meteoprog and our Service Providers may store and access personal data such as cookies, device identifiers or other similar technologies on your device and process such data to personalise content and ads, as well as provide social media features and to analyse the traffic.

  • Store and/or access information on your device

    Cookies, device identifiers or other information can be stored or accessed on your device for the purposes indicated above.

  • Personalised ads and content, ad and content measurement, audience insights, and products development

    Ads and content can be personalised based on a profile. More data can be added to better personalise ads and content. Ad and content performance can be measured. Insights about the audience who saw the ads and content can be derived. Such data can be used to develop or improve user’s experience, systems and software.

By clicking ‘I Agree’ you will allow the use of indicated cookies, device identifiers, web beacons or other similar technologies. Your settings can be changed in the browser on your device.

For certain purposes, legitimate interests may be relied on, rather than consent. You can read more about this in our Privacy and Cookie Policy.